Year,Month,Day,Hour,Minute,Value (Times are PST for insolation in W/m^2)
2023,12,03,00,00,0.00
2023,12,03,00,01,0.00
2023,12,03,00,02,0.00
2023,12,03,00,03,0.00
2023,12,03,00,04,0.00
2023,12,03,00,05,0.00
2023,12,03,00,06,0.00
2023,12,03,00,07,0.00
2023,12,03,00,08,0.00
2023,12,03,00,09,0.00
2023,12,03,00,10,0.00
2023,12,03,00,11,0.00
2023,12,03,00,12,0.00
2023,12,03,00,13,0.00
2023,12,03,00,14,0.00
2023,12,03,00,15,0.00
2023,12,03,00,16,0.00
2023,12,03,00,17,0.00
2023,12,03,00,18,0.00
2023,12,03,00,19,0.00
2023,12,03,00,20,0.00
2023,12,03,00,21,0.00
2023,12,03,00,22,0.00
2023,12,03,00,23,0.00
2023,12,03,00,24,0.00
2023,12,03,00,25,0.00
2023,12,03,00,26,0.00
2023,12,03,00,27,0.00
2023,12,03,00,28,0.00
2023,12,03,00,29,0.00
2023,12,03,00,30,0.00
2023,12,03,00,31,0.00
2023,12,03,00,32,0.00
2023,12,03,00,33,0.00
2023,12,03,00,34,0.00
2023,12,03,00,35,0.00
2023,12,03,00,36,0.00
2023,12,03,00,37,0.00
2023,12,03,00,38,0.00
2023,12,03,00,39,0.00
2023,12,03,00,40,0.00
2023,12,03,00,41,0.00
2023,12,03,00,42,0.00
2023,12,03,00,43,0.00
2023,12,03,00,44,0.00
2023,12,03,00,45,0.00
2023,12,03,00,46,0.00
2023,12,03,00,47,0.00
2023,12,03,00,48,0.00
2023,12,03,00,49,0.00
2023,12,03,00,50,0.00
2023,12,03,00,51,0.00
2023,12,03,00,52,0.00
2023,12,03,00,53,0.00
2023,12,03,00,54,0.00
2023,12,03,00,55,0.00
2023,12,03,00,56,0.00
2023,12,03,00,57,0.00
2023,12,03,00,58,0.00
2023,12,03,00,59,0.00
2023,12,03,01,00,0.00
2023,12,03,01,01,0.00
2023,12,03,01,02,0.00
2023,12,03,01,03,0.00
2023,12,03,01,04,0.00
2023,12,03,01,05,0.00
2023,12,03,01,06,0.00
2023,12,03,01,07,0.00
2023,12,03,01,08,0.00
2023,12,03,01,09,0.00
2023,12,03,01,10,0.00
2023,12,03,01,11,0.00
2023,12,03,01,12,0.00
2023,12,03,01,13,0.00
2023,12,03,01,14,0.00
2023,12,03,01,15,0.00
2023,12,03,01,16,0.00
2023,12,03,01,17,0.00
2023,12,03,01,18,0.00
2023,12,03,01,19,0.00
2023,12,03,01,20,0.00
2023,12,03,01,21,0.00
2023,12,03,01,22,0.00
2023,12,03,01,23,0.00
2023,12,03,01,24,0.00
2023,12,03,01,25,0.00
2023,12,03,01,26,0.00
2023,12,03,01,27,0.00
2023,12,03,01,28,0.00
2023,12,03,01,29,0.00
2023,12,03,01,30,0.00
2023,12,03,01,31,0.00
2023,12,03,01,32,0.00
2023,12,03,01,33,0.00
2023,12,03,01,34,0.00
2023,12,03,01,35,0.00
2023,12,03,01,36,0.00
2023,12,03,01,37,0.00
2023,12,03,01,38,0.00
2023,12,03,01,39,0.00
2023,12,03,01,40,0.00
2023,12,03,01,41,0.00
2023,12,03,01,42,0.00
2023,12,03,01,43,0.00
2023,12,03,01,44,0.00
2023,12,03,01,45,0.00
2023,12,03,01,46,0.00
2023,12,03,01,47,0.00
2023,12,03,01,48,0.00
2023,12,03,01,49,0.00
2023,12,03,01,50,0.00
2023,12,03,01,51,0.00
2023,12,03,01,52,0.00
2023,12,03,01,53,0.00
2023,12,03,01,54,0.00
2023,12,03,01,55,0.00
2023,12,03,01,56,0.00
2023,12,03,01,57,0.00
2023,12,03,01,58,0.00
2023,12,03,01,59,0.00
2023,12,03,02,00,0.00
2023,12,03,02,01,0.00
2023,12,03,02,02,0.00
2023,12,03,02,03,0.00
2023,12,03,02,04,0.00
2023,12,03,02,05,0.00
2023,12,03,02,06,0.00
2023,12,03,02,07,0.00
2023,12,03,02,08,0.00
2023,12,03,02,09,0.00
2023,12,03,02,10,0.00
2023,12,03,02,11,0.00
2023,12,03,02,12,0.00
2023,12,03,02,13,0.00
2023,12,03,02,14,0.00
2023,12,03,02,15,0.00
2023,12,03,02,16,0.00
2023,12,03,02,17,0.00
2023,12,03,02,18,0.00
2023,12,03,02,19,0.00
2023,12,03,02,20,0.00
2023,12,03,02,21,0.00
2023,12,03,02,22,0.00
2023,12,03,02,23,0.00
2023,12,03,02,24,0.00
2023,12,03,02,25,0.00
2023,12,03,02,26,0.00
2023,12,03,02,27,0.00
2023,12,03,02,28,0.00
2023,12,03,02,29,0.00
2023,12,03,02,30,0.00
2023,12,03,02,31,0.00
2023,12,03,02,32,0.00
2023,12,03,02,33,0.00
2023,12,03,02,34,0.00
2023,12,03,02,35,0.00
2023,12,03,02,36,0.00
2023,12,03,02,37,0.00
2023,12,03,02,38,0.00
2023,12,03,02,39,0.00
2023,12,03,02,40,0.00
2023,12,03,02,41,0.00
2023,12,03,02,42,0.00
2023,12,03,02,43,0.00
2023,12,03,02,44,0.00
2023,12,03,02,45,0.00
2023,12,03,02,46,0.00
2023,12,03,02,47,0.00
2023,12,03,02,48,0.00
2023,12,03,02,49,0.00
2023,12,03,02,50,0.00
2023,12,03,02,51,0.00
2023,12,03,02,52,0.00
2023,12,03,02,53,0.00
2023,12,03,02,54,0.00
2023,12,03,02,55,0.00
2023,12,03,02,56,0.00
2023,12,03,02,57,0.00
2023,12,03,02,58,0.00
2023,12,03,02,59,0.00
2023,12,03,03,00,0.00
2023,12,03,03,01,0.00
2023,12,03,03,02,0.00
2023,12,03,03,03,0.00
2023,12,03,03,04,0.00
2023,12,03,03,05,0.00
2023,12,03,03,06,0.00
2023,12,03,03,07,0.00
2023,12,03,03,08,0.00
2023,12,03,03,09,0.00
2023,12,03,03,10,0.00
2023,12,03,03,11,0.00
2023,12,03,03,12,0.00
2023,12,03,03,13,0.00
2023,12,03,03,14,0.00
2023,12,03,03,15,0.00
2023,12,03,03,16,0.00
2023,12,03,03,17,0.00
2023,12,03,03,18,0.00
2023,12,03,03,19,0.00
2023,12,03,03,20,0.00
2023,12,03,03,21,0.00
2023,12,03,03,22,0.00
2023,12,03,03,23,0.00
2023,12,03,03,24,0.00
2023,12,03,03,25,0.00
2023,12,03,03,26,0.00
2023,12,03,03,27,0.00
2023,12,03,03,28,0.00
2023,12,03,03,29,0.00
2023,12,03,03,30,0.00
2023,12,03,03,31,0.00
2023,12,03,03,32,0.00
2023,12,03,03,33,0.00
2023,12,03,03,34,0.00
2023,12,03,03,35,0.00
2023,12,03,03,36,0.00
2023,12,03,03,37,0.00
2023,12,03,03,38,0.00
2023,12,03,03,39,0.00
2023,12,03,03,40,0.00
2023,12,03,03,41,0.00
2023,12,03,03,42,0.00
2023,12,03,03,43,0.00
2023,12,03,03,44,0.00
2023,12,03,03,45,0.00
2023,12,03,03,46,0.00
2023,12,03,03,47,0.00
2023,12,03,03,48,0.00
2023,12,03,03,49,0.00
2023,12,03,03,50,0.00
2023,12,03,03,51,0.00
2023,12,03,03,52,0.00
2023,12,03,03,53,0.00
2023,12,03,03,54,0.00
2023,12,03,03,55,0.00
2023,12,03,03,56,0.00
2023,12,03,03,57,0.00
2023,12,03,03,58,0.00
2023,12,03,03,59,0.00
2023,12,03,04,00,0.00
2023,12,03,04,01,0.00
2023,12,03,04,02,0.00
2023,12,03,04,03,0.00
2023,12,03,04,04,0.00
2023,12,03,04,05,0.00
2023,12,03,04,06,0.00
2023,12,03,04,07,0.00
2023,12,03,04,08,0.00
2023,12,03,04,09,0.00
2023,12,03,04,10,0.00
2023,12,03,04,11,0.00
2023,12,03,04,12,0.00
2023,12,03,04,13,0.00
2023,12,03,04,14,0.00
2023,12,03,04,15,0.00
2023,12,03,04,16,0.00
2023,12,03,04,17,0.00
2023,12,03,04,18,0.00
2023,12,03,04,19,0.00
2023,12,03,04,20,0.00
2023,12,03,04,21,0.00
2023,12,03,04,22,0.00
2023,12,03,04,23,0.00
2023,12,03,04,24,0.00
2023,12,03,04,25,0.00
2023,12,03,04,26,0.00
2023,12,03,04,27,0.00
2023,12,03,04,28,0.00
2023,12,03,04,29,0.00
2023,12,03,04,30,0.00
2023,12,03,04,31,0.00
2023,12,03,04,32,0.00
2023,12,03,04,33,0.00
2023,12,03,04,34,0.00
2023,12,03,04,35,0.00
2023,12,03,04,36,0.00
2023,12,03,04,37,0.00
2023,12,03,04,38,0.00
2023,12,03,04,39,0.00
2023,12,03,04,40,0.00
2023,12,03,04,41,0.00
2023,12,03,04,42,0.00
2023,12,03,04,43,0.00
2023,12,03,04,44,0.00
2023,12,03,04,45,0.00
2023,12,03,04,46,0.00
2023,12,03,04,47,0.00
2023,12,03,04,48,0.00
2023,12,03,04,49,0.00
2023,12,03,04,50,0.00
2023,12,03,04,51,0.00
2023,12,03,04,52,0.00
2023,12,03,04,53,0.00
2023,12,03,04,54,0.00
2023,12,03,04,55,0.00
2023,12,03,04,56,0.00
2023,12,03,04,57,0.00
2023,12,03,04,58,0.00
2023,12,03,04,59,0.00
2023,12,03,05,00,0.00
2023,12,03,05,01,0.00
2023,12,03,05,02,0.00
2023,12,03,05,03,0.00
2023,12,03,05,04,0.00
2023,12,03,05,05,0.00
2023,12,03,05,06,0.00
2023,12,03,05,07,0.00
2023,12,03,05,08,0.00
2023,12,03,05,09,0.00
2023,12,03,05,10,0.00
2023,12,03,05,11,0.00
2023,12,03,05,12,0.00
2023,12,03,05,13,0.00
2023,12,03,05,14,0.00
2023,12,03,05,15,0.00
2023,12,03,05,16,0.00
2023,12,03,05,17,0.00
2023,12,03,05,18,0.00
2023,12,03,05,19,0.00
2023,12,03,05,20,0.00
2023,12,03,05,21,0.00
2023,12,03,05,22,0.00
2023,12,03,05,23,0.00
2023,12,03,05,24,0.00
2023,12,03,05,25,0.00
2023,12,03,05,26,0.00
2023,12,03,05,27,0.00
2023,12,03,05,28,0.00
2023,12,03,05,29,0.00
2023,12,03,05,30,0.00
2023,12,03,05,31,0.00
2023,12,03,05,32,0.00
2023,12,03,05,33,0.00
2023,12,03,05,34,0.00
2023,12,03,05,35,0.00
2023,12,03,05,36,0.00
2023,12,03,05,37,0.00
2023,12,03,05,38,0.00
2023,12,03,05,39,0.00
2023,12,03,05,40,0.00
2023,12,03,05,41,0.00
2023,12,03,05,42,0.00
2023,12,03,05,43,0.00
2023,12,03,05,44,0.00
2023,12,03,05,45,0.00
2023,12,03,05,46,0.00
2023,12,03,05,47,0.00
2023,12,03,05,48,0.00
2023,12,03,05,49,0.00
2023,12,03,05,50,0.00
2023,12,03,05,51,0.00
2023,12,03,05,52,0.00
2023,12,03,05,53,0.00
2023,12,03,05,54,0.00
2023,12,03,05,55,0.00
2023,12,03,05,56,0.00
2023,12,03,05,57,0.00
2023,12,03,05,58,0.00
2023,12,03,05,59,0.00
2023,12,03,06,00,0.00
2023,12,03,06,01,0.00
2023,12,03,06,02,0.00
2023,12,03,06,03,0.00
2023,12,03,06,04,0.00
2023,12,03,06,05,0.00
2023,12,03,06,06,0.00
2023,12,03,06,07,0.00
2023,12,03,06,08,0.00
2023,12,03,06,09,0.00
2023,12,03,06,10,0.00
2023,12,03,06,11,0.00
2023,12,03,06,12,0.00
2023,12,03,06,13,0.00
2023,12,03,06,14,0.00
2023,12,03,06,15,0.00
2023,12,03,06,16,0.00
2023,12,03,06,17,0.00
2023,12,03,06,18,0.00
2023,12,03,06,19,0.00
2023,12,03,06,20,0.00
2023,12,03,06,21,0.00
2023,12,03,06,22,0.00
2023,12,03,06,23,0.00
2023,12,03,06,24,0.00
2023,12,03,06,25,0.00
2023,12,03,06,26,0.00
2023,12,03,06,27,0.00
2023,12,03,06,28,0.00
2023,12,03,06,29,0.00
2023,12,03,06,30,0.00
2023,12,03,06,31,0.00
2023,12,03,06,32,0.00
2023,12,03,06,33,0.00
2023,12,03,06,34,0.00
2023,12,03,06,35,0.00
2023,12,03,06,36,0.00
2023,12,03,06,37,0.00
2023,12,03,06,38,0.00
2023,12,03,06,39,0.00
2023,12,03,06,40,0.00
2023,12,03,06,41,0.00
2023,12,03,06,42,0.00
2023,12,03,06,43,0.00
2023,12,03,06,44,0.00
2023,12,03,06,45,0.00
2023,12,03,06,46,0.00
2023,12,03,06,47,0.00
2023,12,03,06,48,0.00
2023,12,03,06,49,0.00
2023,12,03,06,50,0.00
2023,12,03,06,51,0.00
2023,12,03,06,52,0.00
2023,12,03,06,53,0.00
2023,12,03,06,54,0.00
2023,12,03,06,55,0.00
2023,12,03,06,56,0.00
2023,12,03,06,57,0.00
2023,12,03,06,58,0.00
2023,12,03,06,59,0.00
2023,12,03,07,00,0.00
2023,12,03,07,01,0.00
2023,12,03,07,02,0.00
2023,12,03,07,03,0.00
2023,12,03,07,04,0.00
2023,12,03,07,05,0.00
2023,12,03,07,06,0.00
2023,12,03,07,07,0.00
2023,12,03,07,08,0.00
2023,12,03,07,09,0.00
2023,12,03,07,10,0.00
2023,12,03,07,11,0.00
2023,12,03,07,12,0.00
2023,12,03,07,13,0.00
2023,12,03,07,14,0.00
2023,12,03,07,15,0.00
2023,12,03,07,16,0.00
2023,12,03,07,17,0.00
2023,12,03,07,18,0.00
2023,12,03,07,19,0.00
2023,12,03,07,20,0.00
2023,12,03,07,21,0.00
2023,12,03,07,22,0.00
2023,12,03,07,23,0.00
2023,12,03,07,24,0.00
2023,12,03,07,25,0.00
2023,12,03,07,26,0.00
2023,12,03,07,27,0.00
2023,12,03,07,28,0.00
2023,12,03,07,29,0.00
2023,12,03,07,30,0.00
2023,12,03,07,31,0.00
2023,12,03,07,32,0.00
2023,12,03,07,33,0.00
2023,12,03,07,34,0.00
2023,12,03,07,35,0.00
2023,12,03,07,36,0.00
2023,12,03,07,37,0.00
2023,12,03,07,38,0.00
2023,12,03,07,39,0.00
2023,12,03,07,40,0.00
2023,12,03,07,41,0.00
2023,12,03,07,42,0.00
2023,12,03,07,43,0.00
2023,12,03,07,44,0.00
2023,12,03,07,45,0.00
2023,12,03,07,46,0.00
2023,12,03,07,47,0.00
2023,12,03,07,48,0.00
2023,12,03,07,49,0.00
2023,12,03,07,50,0.00
2023,12,03,07,51,0.00
2023,12,03,07,52,0.00
2023,12,03,07,53,0.00
2023,12,03,07,54,0.00
2023,12,03,07,55,0.00
2023,12,03,07,56,0.00
2023,12,03,07,57,0.00
2023,12,03,07,58,0.00
2023,12,03,07,59,0.00
2023,12,03,08,00,0.00
2023,12,03,08,01,0.00
2023,12,03,08,02,0.00
2023,12,03,08,03,0.00
2023,12,03,08,04,0.00
2023,12,03,08,05,0.00
2023,12,03,08,06,0.00
2023,12,03,08,07,0.00
2023,12,03,08,08,0.00
2023,12,03,08,09,0.00
2023,12,03,08,10,0.00
2023,12,03,08,11,0.00
2023,12,03,08,12,0.00
2023,12,03,08,13,0.00
2023,12,03,08,14,0.00
2023,12,03,08,15,0.00
2023,12,03,08,16,0.00
2023,12,03,08,17,0.00
2023,12,03,08,18,0.00
2023,12,03,08,19,0.00
2023,12,03,08,20,0.00
2023,12,03,08,21,0.00
2023,12,03,08,22,0.00
2023,12,03,08,23,0.00
2023,12,03,08,24,0.00
2023,12,03,08,25,0.00
2023,12,03,08,26,0.00
2023,12,03,08,27,0.00
2023,12,03,08,28,0.00
2023,12,03,08,29,0.00
2023,12,03,08,30,0.00
2023,12,03,08,31,0.00
2023,12,03,08,32,0.00
2023,12,03,08,33,0.00
2023,12,03,08,34,0.00
2023,12,03,08,35,0.00
2023,12,03,08,36,0.00
2023,12,03,08,37,0.00
2023,12,03,08,38,0.00
2023,12,03,08,39,0.00
2023,12,03,08,40,0.00
2023,12,03,08,41,0.00
2023,12,03,08,42,0.00
2023,12,03,08,43,0.00
2023,12,03,08,44,0.00
2023,12,03,08,45,0.00
2023,12,03,08,46,0.00
2023,12,03,08,47,0.00
2023,12,03,08,48,0.00
2023,12,03,08,49,0.00
2023,12,03,08,50,0.00
2023,12,03,08,51,0.00
2023,12,03,08,52,5.00
2023,12,03,08,53,5.00
2023,12,03,08,54,5.00
2023,12,03,08,55,6.00
2023,12,03,08,56,8.20
2023,12,03,08,57,9.00
2023,12,03,08,58,10.80
2023,12,03,08,59,10.70
2023,12,03,09,00,9.00
2023,12,03,09,01,9.00
2023,12,03,09,02,8.00
2023,12,03,09,03,5.70
2023,12,03,09,04,5.00
2023,12,03,09,05,5.00
2023,12,03,09,06,5.00
2023,12,03,09,07,5.50
2023,12,03,09,08,7.80
2023,12,03,09,09,9.00
2023,12,03,09,10,9.00
2023,12,03,09,11,10.50
2023,12,03,09,12,11.00
2023,12,03,09,13,11.00
2023,12,03,09,14,11.00
2023,12,03,09,15,10.20
2023,12,03,09,16,10.00
2023,12,03,09,17,9.80
2023,12,03,09,18,9.00
2023,12,03,09,19,10.80
2023,12,03,09,20,16.40
2023,12,03,09,21,35.10
2023,12,03,09,22,52.50
2023,12,03,09,23,60.10
2023,12,03,09,24,52.20
2023,12,03,09,25,36.60
2023,12,03,09,26,28.60
2023,12,03,09,27,30.30
2023,12,03,09,28,33.90
2023,12,03,09,29,43.80
2023,12,03,09,30,59.70
2023,12,03,09,31,67.00
2023,12,03,09,32,65.50
2023,12,03,09,33,57.00
2023,12,03,09,34,46.30
2023,12,03,09,35,40.10
2023,12,03,09,36,35.00
2023,12,03,09,37,35.00
2023,12,03,09,38,36.20
2023,12,03,09,39,38.50
2023,12,03,09,40,33.70
2023,12,03,09,41,25.60
2023,12,03,09,42,23.00
2023,12,03,09,43,24.20
2023,12,03,09,44,27.90
2023,12,03,09,45,30.00
2023,12,03,09,46,30.00
2023,12,03,09,47,31.80
2023,12,03,09,48,32.00
2023,12,03,09,49,32.30
2023,12,03,09,50,33.70
2023,12,03,09,51,32.50
2023,12,03,09,52,26.90
2023,12,03,09,53,21.90
2023,12,03,09,54,18.30
2023,12,03,09,55,18.00
2023,12,03,09,56,18.20
2023,12,03,09,57,19.70
2023,12,03,09,58,21.00
2023,12,03,09,59,22.30
2023,12,03,10,00,23.00
2023,12,03,10,01,24.80
2023,12,03,10,02,34.30
2023,12,03,10,03,43.30
2023,12,03,10,04,45.90
2023,12,03,10,05,39.50
2023,12,03,10,06,31.90
2023,12,03,10,07,26.90
2023,12,03,10,08,27.90
2023,12,03,10,09,30.60
2023,12,03,10,10,36.60
2023,12,03,10,11,45.30
2023,12,03,10,12,52.00
2023,12,03,10,13,56.10
2023,12,03,10,14,71.30
2023,12,03,10,15,76.00
2023,12,03,10,16,86.60
2023,12,03,10,17,87.00
2023,12,03,10,18,78.20
2023,12,03,10,19,72.00
2023,12,03,10,20,72.70
2023,12,03,10,21,86.80
2023,12,03,10,22,90.00
2023,12,03,10,23,89.90
2023,12,03,10,24,72.00
2023,12,03,10,25,77.20
2023,12,03,10,26,92.00
2023,12,03,10,27,93.00
2023,12,03,10,28,104.60
2023,12,03,10,29,112.60
2023,12,03,10,30,114.70
2023,12,03,10,31,122.30
2023,12,03,10,32,121.50
2023,12,03,10,33,103.50
2023,12,03,10,34,88.00
2023,12,03,10,35,88.70
2023,12,03,10,36,125.80
2023,12,03,10,37,144.50
2023,12,03,10,38,211.60
2023,12,03,10,39,188.50
2023,12,03,10,40,200.50
2023,12,03,10,41,120.60
2023,12,03,10,42,88.00
2023,12,03,10,43,207.40
2023,12,03,10,44,265.20
2023,12,03,10,45,267.00
2023,12,03,10,46,220.50
2023,12,03,10,47,140.00
2023,12,03,10,48,134.00
2023,12,03,10,49,278.60
2023,12,03,10,50,297.50
2023,12,03,10,51,281.00
2023,12,03,10,52,260.80
2023,12,03,10,53,225.30
2023,12,03,10,54,253.70
2023,12,03,10,55,254.60
2023,12,03,10,56,259.20
2023,12,03,10,57,257.30
2023,12,03,10,58,189.60
2023,12,03,10,59,271.00
2023,12,03,11,00,225.60
2023,12,03,11,01,153.00
2023,12,03,11,02,173.10
2023,12,03,11,03,256.50
2023,12,03,11,04,278.00
2023,12,03,11,05,276.00
2023,12,03,11,06,272.80
2023,12,03,11,07,269.40
2023,12,03,11,08,278.50
2023,12,03,11,09,279.00
2023,12,03,11,10,280.50
2023,12,03,11,11,292.50
2023,12,03,11,12,318.00
2023,12,03,11,13,278.30
2023,12,03,11,14,177.30
2023,12,03,11,15,197.00
2023,12,03,11,16,289.20
2023,12,03,11,17,341.80
2023,12,03,11,18,355.40
2023,12,03,11,19,357.00
2023,12,03,11,20,349.20
2023,12,03,11,21,322.80
2023,12,03,11,22,314.50
2023,12,03,11,23,260.10
2023,12,03,11,24,245.90
2023,12,03,11,25,307.90
2023,12,03,11,26,310.50
2023,12,03,11,27,308.00
2023,12,03,11,28,308.00
2023,12,03,11,29,306.00
2023,12,03,11,30,304.00
2023,12,03,11,31,301.80
2023,12,03,11,32,299.20
2023,12,03,11,33,312.50
2023,12,03,11,34,306.90
2023,12,03,11,35,299.50
2023,12,03,11,36,296.00
2023,12,03,11,37,297.60
2023,12,03,11,38,297.50
2023,12,03,11,39,298.80
2023,12,03,11,40,299.20
2023,12,03,11,41,301.70
2023,12,03,11,42,304.00
2023,12,03,11,43,302.50
2023,12,03,11,44,302.90
2023,12,03,11,45,305.50
2023,12,03,11,46,308.70
2023,12,03,11,47,316.00
2023,12,03,11,48,325.80
2023,12,03,11,49,317.20
2023,12,03,11,50,321.20
2023,12,03,11,51,351.00
2023,12,03,11,52,350.00
2023,12,03,11,53,350.00
2023,12,03,11,54,324.00
2023,12,03,11,55,312.30
2023,12,03,11,56,303.20
2023,12,03,11,57,328.60
2023,12,03,11,58,343.00
2023,12,03,11,59,340.00
2023,12,03,12,00,334.60
2023,12,03,12,01,318.40
2023,12,03,12,02,250.40
2023,12,03,12,03,200.00
2023,12,03,12,04,270.50
2023,12,03,12,05,330.10
2023,12,03,12,06,333.90
2023,12,03,12,07,362.40
2023,12,03,12,08,388.20
2023,12,03,12,09,407.90
2023,12,03,12,10,439.00
2023,12,03,12,11,366.50
2023,12,03,12,12,320.40
2023,12,03,12,13,336.00
2023,12,03,12,14,176.80
2023,12,03,12,15,181.80
2023,12,03,12,16,332.50
2023,12,03,12,17,350.60
2023,12,03,12,18,369.00
2023,12,03,12,19,371.00
2023,12,03,12,20,233.30
2023,12,03,12,21,196.40
2023,12,03,12,22,222.50
2023,12,03,12,23,363.90
2023,12,03,12,24,350.00
2023,12,03,12,25,350.00
2023,12,03,12,26,332.80
2023,12,03,12,27,339.80
2023,12,03,12,28,298.20
2023,12,03,12,29,389.60
2023,12,03,12,30,407.10
2023,12,03,12,31,434.90
2023,12,03,12,32,459.00
2023,12,03,12,33,480.60
2023,12,03,12,34,485.00
2023,12,03,12,35,476.20
2023,12,03,12,36,424.10
2023,12,03,12,37,369.30
2023,12,03,12,38,281.40
2023,12,03,12,39,253.00
2023,12,03,12,40,241.60
2023,12,03,12,41,259.80
2023,12,03,12,42,219.20
2023,12,03,12,43,188.80
2023,12,03,12,44,160.90
2023,12,03,12,45,179.20
2023,12,03,12,46,218.00
2023,12,03,12,47,283.50
2023,12,03,12,48,312.00
2023,12,03,12,49,241.00
2023,12,03,12,50,289.80
2023,12,03,12,51,287.30
2023,12,03,12,52,282.80
2023,12,03,12,53,279.00
2023,12,03,12,54,278.40
2023,12,03,12,55,274.90
2023,12,03,12,56,275.80
2023,12,03,12,57,280.20
2023,12,03,12,58,286.50
2023,12,03,12,59,282.80
2023,12,03,13,00,277.50
2023,12,03,13,01,276.00
2023,12,03,13,02,277.50
2023,12,03,13,03,276.20
2023,12,03,13,04,274.00
2023,12,03,13,05,273.20
2023,12,03,13,06,271.00
2023,12,03,13,07,266.30
2023,12,03,13,08,266.30
2023,12,03,13,09,267.50
2023,12,03,13,10,267.00
2023,12,03,13,11,264.90
2023,12,03,13,12,264.00
2023,12,03,13,13,263.20
2023,12,03,13,14,262.00
2023,12,03,13,15,260.70
2023,12,03,13,16,258.50
2023,12,03,13,17,258.00
2023,12,03,13,18,257.00
2023,12,03,13,19,255.40
2023,12,03,13,20,252.50
2023,12,03,13,21,254.00
2023,12,03,13,22,253.00
2023,12,03,13,23,251.50
2023,12,03,13,24,251.00
2023,12,03,13,25,250.00
2023,12,03,13,26,250.00
2023,12,03,13,27,249.30
2023,12,03,13,28,246.00
2023,12,03,13,29,243.40
2023,12,03,13,30,243.00
2023,12,03,13,31,241.20
2023,12,03,13,32,241.00
2023,12,03,13,33,240.50
2023,12,03,13,34,238.20
2023,12,03,13,35,237.00
2023,12,03,13,36,237.00
2023,12,03,13,37,236.20
2023,12,03,13,38,236.90
2023,12,03,13,39,235.50
2023,12,03,13,40,231.50
2023,12,03,13,41,228.80
2023,12,03,13,42,228.50
2023,12,03,13,43,231.20
2023,12,03,13,44,230.50
2023,12,03,13,45,231.80
2023,12,03,13,46,206.70
2023,12,03,13,47,134.20
2023,12,03,13,48,87.10
2023,12,03,13,49,91.90
2023,12,03,13,50,113.20
2023,12,03,13,51,125.00
2023,12,03,13,52,213.50
2023,12,03,13,53,220.60
2023,12,03,13,54,216.90
2023,12,03,13,55,213.60
2023,12,03,13,56,212.00
2023,12,03,13,57,209.80
2023,12,03,13,58,206.80
2023,12,03,13,59,204.20
2023,12,03,14,00,201.70
2023,12,03,14,01,199.70
2023,12,03,14,02,199.00
2023,12,03,14,03,198.00
2023,12,03,14,04,195.70
2023,12,03,14,05,192.70
2023,12,03,14,06,186.00
2023,12,03,14,07,186.80
2023,12,03,14,08,169.30
2023,12,03,14,09,189.20
2023,12,03,14,10,188.00
2023,12,03,14,11,191.10
2023,12,03,14,12,203.40
2023,12,03,14,13,227.30
2023,12,03,14,14,252.50
2023,12,03,14,15,264.00
2023,12,03,14,16,260.50
2023,12,03,14,17,250.70
2023,12,03,14,18,238.60
2023,12,03,14,19,215.50
2023,12,03,14,20,202.80
2023,12,03,14,21,165.10
2023,12,03,14,22,250.30
2023,12,03,14,23,227.40
2023,12,03,14,24,151.30
2023,12,03,14,25,152.30
2023,12,03,14,26,201.50
2023,12,03,14,27,168.60
2023,12,03,14,28,175.50
2023,12,03,14,29,94.50
2023,12,03,14,30,97.20
2023,12,03,14,31,109.00
2023,12,03,14,32,114.00
2023,12,03,14,33,92.50
2023,12,03,14,34,89.60
2023,12,03,14,35,73.00
2023,12,03,14,36,68.60
2023,12,03,14,37,82.50
2023,12,03,14,38,85.50
2023,12,03,14,39,74.80
2023,12,03,14,40,63.80
2023,12,03,14,41,58.60
2023,12,03,14,42,61.80
2023,12,03,14,43,59.50
2023,12,03,14,44,58.00
2023,12,03,14,45,59.00
2023,12,03,14,46,63.10
2023,12,03,14,47,63.50
2023,12,03,14,48,58.60
2023,12,03,14,49,55.70
2023,12,03,14,50,51.40
2023,12,03,14,51,47.00
2023,12,03,14,52,48.00
2023,12,03,14,53,51.60
2023,12,03,14,54,58.40
2023,12,03,14,55,64.50
2023,12,03,14,56,67.20
2023,12,03,14,57,69.00
2023,12,03,14,58,69.40
2023,12,03,14,59,71.00
2023,12,03,15,00,70.70
2023,12,03,15,01,71.50
2023,12,03,15,02,69.30
2023,12,03,15,03,68.70
2023,12,03,15,04,66.50
2023,12,03,15,05,64.20
2023,12,03,15,06,62.50
2023,12,03,15,07,60.80
2023,12,03,15,08,58.50
2023,12,03,15,09,54.50
2023,12,03,15,10,52.80
2023,12,03,15,11,51.00
2023,12,03,15,12,51.00
2023,12,03,15,13,51.00
2023,12,03,15,14,51.00
2023,12,03,15,15,49.50
2023,12,03,15,16,47.20
2023,12,03,15,17,46.90
2023,12,03,15,18,45.50
2023,12,03,15,19,43.20
2023,12,03,15,20,41.00
2023,12,03,15,21,39.40
2023,12,03,15,22,37.50
2023,12,03,15,23,35.30
2023,12,03,15,24,35.00
2023,12,03,15,25,35.00
2023,12,03,15,26,34.20
2023,12,03,15,27,33.00
2023,12,03,15,28,33.00
2023,12,03,15,29,33.00
2023,12,03,15,30,32.10
2023,12,03,15,31,30.00
2023,12,03,15,32,30.00
2023,12,03,15,33,30.00
2023,12,03,15,34,30.00
2023,12,03,15,35,28.70
2023,12,03,15,36,28.00
2023,12,03,15,37,26.30
2023,12,03,15,38,24.80
2023,12,03,15,39,22.50
2023,12,03,15,40,21.00
2023,12,03,15,41,20.00
2023,12,03,15,42,19.00
2023,12,03,15,43,19.00
2023,12,03,15,44,19.00
2023,12,03,15,45,18.00
2023,12,03,15,46,18.00
2023,12,03,15,47,18.40
2023,12,03,15,48,19.00
2023,12,03,15,49,18.40
2023,12,03,15,50,18.00
2023,12,03,15,51,18.00
2023,12,03,15,52,17.80
2023,12,03,15,53,16.00
2023,12,03,15,54,15.20
2023,12,03,15,55,14.00
2023,12,03,15,56,12.80
2023,12,03,15,57,12.00
2023,12,03,15,58,11.10
2023,12,03,15,59,11.00
2023,12,03,16,00,10.50
2023,12,03,16,01,9.00
2023,12,03,16,02,9.00
2023,12,03,16,03,9.00
2023,12,03,16,04,7.50
2023,12,03,16,05,7.00
2023,12,03,16,06,7.00
2023,12,03,16,07,7.00
2023,12,03,16,08,7.00
2023,12,03,16,09,7.00
2023,12,03,16,10,7.00
2023,12,03,16,11,5.50
2023,12,03,16,12,5.00
2023,12,03,16,13,5.00
2023,12,03,16,14,5.00
2023,12,03,16,15,3.10
2023,12,03,16,16,0.00
2023,12,03,16,17,0.00
2023,12,03,16,18,0.00
2023,12,03,16,19,0.00
2023,12,03,16,20,0.00
2023,12,03,16,21,0.00
2023,12,03,16,22,0.00
2023,12,03,16,23,0.00
2023,12,03,16,24,0.00
2023,12,03,16,25,0.00
2023,12,03,16,26,0.00
2023,12,03,16,27,0.00
2023,12,03,16,28,0.00
2023,12,03,16,29,0.00
2023,12,03,16,30,0.00
2023,12,03,16,31,0.00
2023,12,03,16,32,0.00
2023,12,03,16,33,0.00
2023,12,03,16,34,0.00
2023,12,03,16,35,0.00
2023,12,03,16,36,0.00
2023,12,03,16,37,0.00
2023,12,03,16,38,0.00
2023,12,03,16,39,0.00
2023,12,03,16,40,0.00
2023,12,03,16,41,0.00
2023,12,03,16,42,0.00
2023,12,03,16,43,0.00
2023,12,03,16,44,0.00
2023,12,03,16,45,0.00
2023,12,03,16,46,0.00
2023,12,03,16,47,0.00
2023,12,03,16,48,0.00
2023,12,03,16,49,0.00
2023,12,03,16,50,0.00
2023,12,03,16,51,0.00
2023,12,03,16,52,0.00
2023,12,03,16,53,0.00
2023,12,03,16,54,0.00
2023,12,03,16,55,0.00
2023,12,03,16,56,0.00
2023,12,03,16,57,0.00
2023,12,03,16,58,0.00
2023,12,03,16,59,0.00
2023,12,03,17,00,0.00
2023,12,03,17,01,0.00
2023,12,03,17,02,0.00
2023,12,03,17,03,0.00
2023,12,03,17,04,0.00
2023,12,03,17,05,0.00
2023,12,03,17,06,0.00
2023,12,03,17,07,0.00
2023,12,03,17,08,0.00
2023,12,03,17,09,0.00
2023,12,03,17,10,0.00
2023,12,03,17,11,0.00
2023,12,03,17,12,0.00
2023,12,03,17,13,0.00
2023,12,03,17,14,0.00
2023,12,03,17,15,0.00
2023,12,03,17,16,0.00
2023,12,03,17,17,0.00
2023,12,03,17,18,0.00
2023,12,03,17,19,0.00
2023,12,03,17,20,0.00
2023,12,03,17,21,0.00
2023,12,03,17,22,0.00
2023,12,03,17,23,0.00
2023,12,03,17,24,0.00
2023,12,03,17,25,0.00
2023,12,03,17,26,0.00
2023,12,03,17,27,0.00
2023,12,03,17,28,0.00
2023,12,03,17,29,0.00
2023,12,03,17,30,0.00
2023,12,03,17,31,0.00
2023,12,03,17,32,0.00
2023,12,03,17,33,0.00
2023,12,03,17,34,0.00
2023,12,03,17,35,0.00
2023,12,03,17,36,0.00
2023,12,03,17,37,0.00